Location: Aix-en-Ergny
(50.5839°N, 1.9996°E)
Time: 16:58:31
(UTC+00:00)

Cosmos 1484 Rocket - Pass Details

Date: 23 October 2019
Orbit: 507 x 559 km, 97.4° (Epoch: 20 November)

Event Time Altitude Azimuth Distance (km) Brightness Sun altitude
Rises 04:48:06 0° 17° (NNE) 2,657 6.6 -16.4°
Reaches altitude 10° 04:50:14 10° 22° (NNE) 1,771 5.7 -16.0°
Maximum altitude 04:53:59 53° 100° (E) 656 3.6 -15.4°
Drops below altitude 10° 04:57:46 10° 178° (S) 1,785 5.4 -14.8°
Sets 04:59:55 0° 183° (S) 2,680 6.3 -14.5°
